Flag for Germany Weather past 2 weeks in Fürth, Bavaria, Germany

Now
48 °F

Clear.


Feels Like: 46 °F
Forecast: 42 / 66 °F
Wind: 6 mph from East

Location: Nuernberg


UV Index: 0 (Low)

Visibility: 10 mi


Pressure: 29.71 "Hg

Humidity: 76%

Dew point: 41 °F

Location of FürthLocation

Historic Weather in Fürth

°F

Fürth temperature yesterday

Maximum temperature yesterday: 64 °F (at 1:20 PM)
Minimum temperature yesterday: 48 °F (at 2:20 AM)
Average temperature yesterday: 56 °F

Past Weeks' High & Low Weather Summary

 TemperatureHumidityPressure
High72 °F (Apr 7, 5:20 PM)100% (Apr 16, 6:20 AM)30.36 "Hg (Apr 16, 6:20 AM)
Low27 °F (Apr 17, 6:20 AM)28% (Apr 17, 2:50 PM)29.71 "Hg (Apr 20, 1:50 PM)
Average50 °F69%30.05 "Hg
* Reported Apr 5 11:20 PM — Apr 20 11:50 PM, Fürth, Weather by CustomWeather, © 2014

Note: Actual official high and low records may vary slightly from our data, if they occured in-between our weather recording intervals... More about our weather records

Advertising

Historic Weather Conditions — Data for Previous 24 hours

 ConditionsComfort  
Time TempWeatherWind HumidityBarometerVisibility
11:50 PM
Apr 20
50 °FPassing clouds.3 mph76%29.71 "HgN/A
11:20 PM50 °FPassing clouds.3 mph76%29.71 "HgN/A
10:50 PM52 °FPassing clouds.5 mph72%29.71 "HgN/A
10:20 PM50 °FPassing clouds.3 mph76%29.71 "HgN/A
9:50 PM52 °FPassing clouds.5 mph67%29.71 "HgN/A
9:20 PM54 °FPassing clouds.3 mph63%29.71 "HgN/A
8:50 PM54 °FPassing clouds.3 mph63%29.71 "HgN/A
8:20 PM55 °FPassing clouds.5 mph59%29.71 "HgN/A
7:50 PM59 °FPassing clouds.8 mph51%29.71 "HgN/A
7:20 PM59 °FPassing clouds.9 mph51%29.71 "HgN/A
6:50 PM61 °FPassing clouds.8 mph52%29.71 "HgN/A
6:20 PM61 °FPassing clouds.13 mph48%29.71 "HgN/A
5:50 PM63 °FPassing clouds.16 mph45%29.71 "HgN/A
5:20 PM63 °FPassing clouds.15 mph49%29.71 "HgN/A
4:50 PM63 °FScattered clouds.13 mph49%29.71 "HgN/A
4:20 PM61 °FScattered clouds.14 mph55%29.71 "HgN/A
3:50 PM59 °FSprinkles. Scattered clouds.7 mph63%29.71 "HgN/A
3:20 PM59 °FThundershowers. Scattered clouds.8 mph72%29.71 "HgN/A
2:50 PM64 °FThunderstorms. Partly sunny.12 mph43%29.71 "HgN/A
2:20 PM63 °FPassing clouds.12 mph45%29.71 "HgN/A
1:50 PM63 °FPassing clouds.10 mph45%29.71 "HgN/A
1:20 PM64 °FPassing clouds.10 mph49%29.74 "HgN/A
12:50 PM63 °FPartly sunny.8 mph49%29.74 "HgN/A
12:20 PM61 °FPartly sunny.9 mph52%29.74 "HgN/A
11:50 AM61 °FPartly sunny.10 mph52%29.74 "HgN/A
11:20 AM61 °FScattered clouds.12 mph52%29.74 "HgN/A
10:50 AM59 °FScattered clouds.10 mph55%29.74 "HgN/A
10:20 AM59 °FScattered clouds.10 mph55%29.74 "HgN/A
9:50 AM57 °FPassing clouds.8 mph63%29.74 "HgN/A
9:20 AM55 °FPassing clouds.12 mph67%29.74 "HgN/A
8:50 AM55 °FPassing clouds.12 mph67%29.74 "HgN/A
8:20 AM54 °FPassing clouds.12 mph72%29.74 "HgN/A
7:50 AM52 °FPassing clouds.7 mph77%29.74 "HgN/A
7:20 AM52 °FPassing clouds.7 mph77%29.74 "HgN/A
6:50 AM50 °FPassing clouds.3 mph82%29.74 "HgN/A
6:20 AM52 °FPassing clouds.7 mph77%29.74 "HgN/A
5:50 AM52 °FClear.8 mph72%29.74 "Hg10 mi
5:20 AM52 °FPassing clouds.8 mph72%29.74 "HgN/A
4:50 AM52 °FPassing clouds.12 mph72%29.74 "HgN/A
4:20 AM52 °FPassing clouds.7 mph77%29.74 "HgN/A
3:50 AM52 °FPassing clouds.5 mph77%29.74 "HgN/A
3:20 AM52 °FPassing clouds.6 mph77%29.74 "HgN/A
2:50 AM50 °FClear.1 mph82%29.77 "Hg10 mi
2:20 AM48 °FClear.2 mph87%29.77 "Hg10 mi
1:50 AM50 °FClear.2 mph82%29.77 "Hg10 mi
1:20 AM52 °FClear.2 mph82%29.80 "Hg10 mi
Weather by CustomWeather, © 2014

See weather overview